Wind_Speed
51 53 54 56 58 61 62 64 67 69 71 74 76 78 81 83 84 86 87 84 80 78 77 76 76 76 77 78 79 80 81 83 85 87 89 91 94 98 101 102 103 103 102 101 100 95 87 79 72 68 65 62 58 54 53 53 50 49 50 50 50 49 49 52 52 53 61 72 81 88 93 98 99 95 93 92 89 89 88 86 85 84 83 81 80
52 53 55 57 59 61 63 66 68 71 73 75 77 80 82 84 85 86 86 83 80 79 77 77 77 77 78 80 80 81 82 84 87 89 91 94 97 100 102 103 103 103 102 99 92 83 74 66 61 58 56 54 51 48 49 48 48 49 50 50 50 50 50 50 50 51 58 69 79 85 91 96 95 92 92 90 88 88 88 87 86 85 83 81 79
52 53 55 57 60 62 65 68 70 73 75 77 80 82 84 85 85 85 84 82 81 80 79 78 78 79 80 81 81 82 83 86 88 90 93 96 99 101 102 103 104 103 99 91 79 69 62 57 55 53 50 49 46 45 46 46 47 49 51 51 51 51 50 50 49 49 55 66 78 84 89 94 94 91 91 88 87 88 88 87 86 84 83 82 80
52 53 55 58 61 64 67 69 72 74 77 79 82 84 86 85 83 83 83 83 82 80 80 80 80 80 81 81 82 83 85 87 90 92 96 99 101 102 102 103 103 100 92 79 66 60 56 53 52 50 47 45 43 43 44 45 47 49 52 52 52 51 51 51 49 50 54 63 76 84 88 93 93 89 87 86 86 86 85 84 83 82 82 80 79
52 54 57 60 62 65 68 70 73 76 78 80 83 85 86 84 82 82 82 83 83 81 80 81 81 81 82 82 82 83 86 89 92 94 98 101 102 102 103 103 100 93 81 68 59 56 54 52 50 47 44 42 41 42 43 44 46 48 51 53 53 52 52 52 51 51 54 61 73 84 89 93 93 86 82 84 85 84 83 82 81 79 81 81 78
53 55 58 61 64 66 69 71 74 76 78 81 84 86 86 83 81 81 81 83 83 81 81 81 82 82 82 82 83 84 88 91 94 97 100 102 103 103 103 101 94 82 69 60 57 54 52 49 46 43 41 40 39 40 42 43 44 46 48 52 54 53 53 53 52 53 55 59 71 84 90 94 93 85 81 84 85 83 83 82 79 74 76 82 81
54 57 59 62 65 67 70 72 74 76 79 82 85 86 85 83 81 81 82 83 83 82 82 82 82 82 82 82 83 85 89 92 95 99 101 102 103 103 101 95 84 72 61 58 57 53 49 46 42 40 39 37 37 39 41 42 43 43 44 48 54 56 55 55 54 54 56 59 71 85 91 95 92 83 81 83 84 86 85 84 80 71 71 80 83
56 58 60 63 65 68 70 73 75 77 80 83 85 85 84 83 82 82 82 83 83 83 82 82 83 82 82 82 83 87 91 93 97 100 101 102 103 101 97 87 73 63 58 58 56 50 45 41 37 36 36 35 36 38 39 41 43 43 43 44 49 54 56 56 56 56 56 59 72 87 94 97 91 84 85 85 84 89 88 85 82 73 69 76 82
57 60 62 64 66 69 71 73 76 78 80 83 85 86 85 84 84 84 84 84 84 83 83 83 82 81 81 82 84 88 92 95 98 99 100 102 101 97 90 76 62 57 58 57 52 46 40 36 33 33 33 33 36 38 39 41 43 44 45 46 48 51 53 56 57 58 58 60 73 90 98 99 92 85 91 90 84 90 94 89 85 76 70 74 81
59 61 63 65 67 70 72 74 77 79 80 83 85 86 86 86 87 86 85 84 84 83 83 83 82 81 81 82 85 89 93 96 97 98 100 101 98 91 81 66 56 55 56 51 45 40 36 32 31 31 32 33 37 39 40 43 44 45 47 49 52 53 54 57 59 60 60 61 76 95 101 101 94 88 94 94 82 86 97 95 88 77 70 74 81
61 63 64 66 68 71 73 75 77 79 80 82 84 86 87 88 88 86 85 85 85 84 83 82 80 80 81 83 87 90 93 96 96 96 99 98 92 83 70 58 53 53 50 44 38 34 32 31 30 31 33 34 37 40 42 44 46 48 50 51 55 57 58 60 61 63 63 62 79 100 103 101 97 89 94 97 87 84 93 95 91 81 70 72 80
62 64 65 68 70 72 74 76 78 79 79 81 83 85 87 88 87 85 85 85 84 83 81 80 79 80 81 84 88 92 94 95 94 95 96 93 84 72 61 54 50 47 43 37 33 30 30 31 31 33 34 36 38 40 42 45 48 50 53 54 57 60 62 63 64 66 65 64 81 103 105 101 97 90 92 97 93 88 89 91 94 85 70 67 77
64 65 66 69 71 73 75 76 77 78 79 80 82 84 85 86 85 85 85 84 83 81 80 79 79 80 83 86 90 93 95 95 94 94 93 86 74 62 54 50 45 40 36 34 31 30 31 33 34 36 37 38 40 41 44 47 50 52 54 56 59 63 64 66 67 70 69 68 84 105 107 101 95 89 88 92 93 94 92 90 94 88 71 66 75
65 66 67 70 72 73 75 75 76 77 78 80 81 82 84 84 84 85 84 82 81 79 78 78 78 81 84 88 92 95 96 96 94 93 90 79 64 54 49 44 39 35 33 32 32 32 34 36 37 39 41 43 45 46 47 50 53 54 55 57 60 62 65 67 70 73 71 73 90 106 106 102 95 85 83 85 89 97 97 93 94 89 74 66 74
65 66 68 70 72 73 74 75 75 76 77 79 81 82 82 83 83 83 82 81 79 77 77 77 78 81 85 89 93 96 97 97 94 92 86 71 57 50 46 40 35 34 33 33 34 36 38 40 41 43 45 47 49 50 50 52 54 55 56 58 59 61 65 67 71 75 73 76 97 108 104 102 96 84 81 81 84 96 101 96 96 91 76 67 72
65 67 69 70 72 73 73 73 74 75 77 79 80 80 81 82 82 82 81 79 77 76 76 77 79 82 86 90 94 95 97 97 94 90 82 65 53 49 45 37 34 34 34 36 38 40 42 44 45 47 48 49 49 50 49 50 52 54 56 58 59 60 64 67 71 75 74 79 102 110 103 103 97 86 82 80 81 94 101 99 100 91 74 67 72
66 68 69 71 71 71 71 72 73 75 77 79 79 79 80 81 81 81 79 77 76 75 75 76 79 83 86 91 94 95 96 96 92 88 79 62 50 47 43 36 33 34 36 39 41 42 43 45 46 46 45 44 44 44 44 45 48 51 55 59 61 61 64 66 70 75 73 82 106 113 104 102 98 87 85 82 80 88 96 101 105 92 72 67 73
67 69 70 70 71 71 71 72 74 76 77 78 77 78 79 80 80 80 77 76 75 74 74 76 79 83 87 91 94 95 95 92 87 82 75 62 50 45 41 35 33 35 38 40 41 41 43 45 46 43 37 36 37 38 40 42 45 50 55 60 62 63 65 66 71 75 74 85 110 116 105 101 97 89 87 85 80 82 89 99 107 93 74 72 77
68 69 70 70 70 70 71 72 74 76 77 76 76 77 78 79 79 78 76 75 74 74 74 75 79 83 87 90 93 95 93 89 82 74 68 60 52 46 40 35 35 37 39 40 41 40 42 45 43 37 30 30 32 35 38 40 44 49 54 59 64 67 68 69 73 77 77 88 112 118 107 99 94 90 88 85 81 80 85 96 105 92 74 75 81
69 70 70 70 70 70 71 72 74 75 75 75 75 76 77 78 77 76 75 74 73 73 74 75 78 83 86 89 92 93 91 85 75 66 61 58 54 47 40 36 36 38 39 40 39 40 42 43 38 30 26 27 30 33 35 37 40 43 48 53 59 67 73 74 76 78 80 92 112 118 109 100 93 88 86 84 82 83 84 92 100 90 74 74 82
70 70 70 70 70 70 71 72 73 73 74 74 75 76 76 76 76 75 73 73 73 73 74 76 79 82 85 88 91 91 88 79 68 59 56 55 53 49 41 37 38 39 39 39 39 39 41 39 33 27 24 26 29 31 31 33 35 38 42 46 53 65 74 76 77 80 82 93 112 117 110 102 93 85 84 83 82 84 86 90 95 89 76 73 78
70 70 70 70 70 70 70 71 72 73 73 74 74 75 75 75 74 73 72 72 73 73 74 76 79 81 84 87 90 89 83 73 61 55 53 53 52 49 42 37 38 39 39 39 39 39 40 35 29 25 24 25 27 28 29 30 32 36 39 43 50 62 72 75 77 80 82 93 109 115 111 103 93 83 83 85 84 84 88 91 92 89 81 76 76
69 69 70 70 69 69 69 70 71 72 72 73 73 73 73 73 72 71 71 71 72 73 75 77 79 80 82 85 88 86 79 66 55 52 52 50 50 48 42 38 39 39 39 40 39 39 37 32 26 24 23 24 25 26 28 29 31 33 37 43 50 59 68 73 76 79 82 90 105 113 111 102 91 83 83 86 86 86 88 91 90 87 82 77 74
69 70 70 69 68 68 69 70 71 72 72 72 72 72 71 71 70 70 70 71 72 73 75 77 78 80 81 84 85 83 74 61 51 49 51 49 48 46 41 38 38 39 40 40 40 38 34 28 25 23 23 23 24 26 28 30 31 33 36 42 48 55 63 68 72 76 80 88 102 112 108 97 88 84 83 85 87 86 86 88 87 84 82 78 73
70 70 70 68 67 67 68 70 71 71 71 71 71 70 69 69 68 69 70 70 72 74 76 77 78 79 80 83 83 80 71 57 47 46 49 48 46 44 41 38 37 38 39 40 40 37 31 26 24 22 22 23 24 28 30 31 33 35 37 42 47 52 59 63 68 73 76 85 101 110 103 92 87 85 84 85 87 86 84 85 85 83 83 80 75
69 70 69 67 67 67 68 69 70 70 70 69 68 67 67 66 67 68 69 70 72 74 76 77 78 79 80 82 82 78 68 55 45 43 46 46 42 40 39 38 37 37 38 39 38 34 27 23 22 22 22 23 26 29 31 34 36 37 39 43 46 52 57 61 66 69 71 82 101 108 100 90 87 87 86 86 87 87 86 85 84 84 85 83 78
69 69 69 67 67 67 68 69 69 69 68 67 65 65 64 65 66 67 68 70 72 75 76 78 78 79 80 81 81 76 65 53 44 41 42 41 38 35 34 35 35 35 37 38 36 31 24 21 21 21 22 24 28 30 31 34 36 38 40 43 46 52 58 60 64 67 70 84 103 106 97 91 90 89 88 88 88 89 88 86 84 83 82 82 79
67 68 68 68 67 67 67 68 68 67 65 63 62 61 62 63 65 66 68 70 72 74 77 78 79 80 80 80 79 73 63 51 43 40 40 39 36 32 31 32 32 33 35 35 32 27 21 20 21 21 22 25 29 31 31 32 35 37 39 42 47 52 57 61 64 66 73 92 107 103 94 92 92 90 90 90 90 89 88 87 85 83 82 82 80
66 68 68 67 67 66 66 66 65 64 62 60 58 58 59 61 64 66 68 71 73 75 77 79 80 80 80 79 77 72 61 50 42 39 40 39 37 33 32 31 30 30 31 32 28 23 19 18 20 21 22 25 28 30 30 31 32 34 37 42 47 51 54 58 61 65 79 100 108 99 90 90 90 89 90 91 90 89 88 88 88 86 84 83 80
65 67 67 66 66 65 64 64 62 60 58 56 56 57 58 60 63 66 68 71 73 75 77 79 80 80 80 78 75 69 60 49 42 40 40 38 36 34 32 31 29 27 28 29 25 19 17 18 20 22 23 25 27 29 30 29 30 32 37 43 47 49 51 55 57 66 86 104 105 94 84 82 84 87 89 90 89 88 88 88 87 86 86 85 82
65 66 65 64 64 63 62 61 58 56 54 54 54 56 58 60 63 65 68 70 72 75 77 79 80 80 79 77 72 65 56 48 42 41 40 37 35 34 32 29 27 25 25 26 22 17 15 17 20 22 23 25 26 28 28 27 28 33 39 44 48 50 52 54 56 68 89 103 100 88 79 77 82 87 89 89 88 87 87 86 85 85 87 86 83
64 64 64 63 61 60 59 57 55 52 51 51 52 54 56 59 62 65 67 69 71 73 76 78 79 80 78 75 69 61 53 46 41 40 39 37 37 35 31 28 25 23 23 22 19 15 14 16 20 22 23 25 27 27 26 25 28 34 39 44 49 53 55 57 60 70 86 96 91 81 76 78 84 87 87 86 86 86 85 84 84 85 86 83 80
63 63 61 60 59 58 56 54 51 49 49 49 50 52 55 58 60 63 66 68 71 73 75 77 78 79 77 72 66 58 51 45 40 39 38 39 38 35 31 27 23 20 19 19 16 14 13 15 19 21 23 25 27 26 23 23 29 35 38 43 50 53 55 60 66 74 83 85 80 74 76 82 87 87 85 84 84 84 84 84 85 85 82 79 78
61 60 59 58 57 55 53 50 47 47 47 48 49 51 54 57 59 61 64 66 69 72 74 75 77 78 76 70 62 54 48 44 40 38 38 40 38 33 28 26 22 17 16 16 15 13 11 14 18 21 23 25 26 23 21 24 30 36 39 44 50 53 56 63 70 75 77 75 72 73 78 84 87 87 86 86 85 84 84 85 86 83 79 78 79
59 58 57 55 54 51 48 46 44 45 46 47 48 51 54 56 58 60 63 65 67 69 71 74 75 76 75 69 59 51 45 42 40 38 38 39 36 30 27 26 23 18 16 15 14 12 11 13 18 21 24 25 25 22 21 25 34 39 42 46 50 54 58 64 67 69 69 69 70 73 77 82 85 86 85 83 82 80 81 84 83 79 77 79 79
57 56 54 52 50 47 44 43 43 44 45 46 48 50 53 56 58 60 63 65 67 68 70 72 74 75 73 67 57 48 43 41 39 38 37 37 35 31 29 29 25 18 15 14 13 12 11 12 17 22 24 25 24 21 22 29 38 44 46 49 53 56 58 60 61 63 65 68 70 72 75 79 83 83 81 79 76 75 77 78 76 74 75 78 77
55 53 51 48 46 43 41 41 42 43 44 46 48 50 53 56 58 60 63 65 67 68 69 71 73 73 70 62 51 44 42 40 38 37 36 37 37 36 34 33 27 17 13 13 13 12 11 13 17 22 25 26 24 22 24 32 42 48 50 53 55 56 56 55 58 62 66 69 72 74 75 78 79 77 75 74 72 72 73 71 68 68 74 77 78
52 49 46 43 41 39 39 41 42 43 44 46 48 50 53 55 58 60 63 65 66 68 69 71 73 72 67 57 47 40 39 38 36 35 35 34 34 34 34 33 27 17 12 12 13 12 12 14 17 21 24 25 25 23 25 32 42 50 54 56 57 56 54 54 59 64 66 68 73 76 76 76 74 69 68 70 70 71 71 69 65 67 73 77 78
48 45 42 39 37 38 39 40 41 43 44 46 48 50 53 55 58 60 63 64 66 67 69 71 73 72 65 54 43 37 36 35 33 31 31 30 29 29 30 29 26 18 12 12 13 12 12 15 18 21 24 25 25 25 26 30 38 47 54 57 58 57 54 54 61 67 68 67 68 71 72 72 70 66 67 70 69 69 72 72 69 69 73 77 79
44 40 37 36 36 37 39 40 41 43 44 47 49 51 53 55 58 60 62 64 66 67 69 72 74 71 63 52 40 34 33 33 30 28 28 28 27 26 26 25 23 19 13 12 13 13 13 15 19 22 24 25 26 26 26 29 34 43 51 57 59 58 55 54 59 67 69 67 65 66 68 69 69 69 73 74 70 68 74 77 74 71 73 76 78
40 36 34 34 35 37 39 40 41 43 45 47 49 51 53 55 57 60 62 64 66 68 70 73 74 70 61 49 38 32 31 31 29 27 26 25 25 25 24 23 21 18 14 13 13 14 14 16 19 22 25 26 26 27 27 29 33 39 47 54 58 59 57 55 57 64 68 67 65 66 67 69 71 74 78 76 70 69 76 80 77 72 71 73 75
35 32 32 33 35 37 38 40 42 43 45 47 49 51 53 55 57 59 61 63 66 68 70 74 74 69 58 46 36 31 31 31 28 26 25 24 24 25 25 23 20 17 15 14 14 14 15 16 18 22 25 26 27 28 29 30 33 38 45 52 57 59 59 57 58 62 66 67 66 66 68 71 74 76 77 76 73 72 77 80 79 75 71 70 73
31 31 32 33 35 37 39 40 42 43 45 47 50 52 54 55 57 59 61 63 65 68 71 74 73 66 55 43 34 30 30 31 28 26 24 24 24 24 25 24 22 17 15 15 16 16 15 15 17 21 25 27 28 29 30 31 34 38 43 49 55 59 60 59 59 61 65 68 68 67 68 71 73 74 76 77 77 76 77 78 77 75 71 69 70
29 30 32 34 36 37 39 40 41 44 46 48 50 52 54 55 57 59 61 63 66 68 71 73 71 63 51 40 33 30 30 30 29 27 25 24 23 23 24 25 23 19 15 14 16 17 17 17 18 20 24 27 30 31 31 31 34 38 42 48 53 58 60 60 59 60 63 67 69 69 69 71 72 73 75 78 79 78 77 77 76 75 74 72 71
29 31 33 35 36 37 38 40 42 44 46 48 50 52 54 55 58 60 62 64 66 68 70 72 69 60 48 37 31 29 29 29 28 26 24 23 22 22 22 23 23 21 17 14 15 17 19 19 19 20 24 27 30 32 33 32 33 36 41 46 52 57 60 61 61 60 60 63 66 68 70 71 73 73 75 77 79 78 77 76 76 76 76 76 75
30 32 34 35 36 36 38 40 42 44 46 48 50 52 54 56 58 60 62 64 66 68 69 69 66 57 45 35 30 28 28 28 28 26 24 23 22 21 21 22 22 21 17 14 13 16 18 19 19 20 23 27 30 33 35 34 34 35 39 43 49 56 60 62 62 60 60 60 62 64 67 71 73 74 75 77 79 79 78 77 76 75 76 78 78
31 33 34 34 35 37 39 41 43 45 47 49 51 52 54 56 58 60 62 64 66 67 67 66 62 53 42 33 29 28 27 27 27 26 24 22 22 21 20 20 20 20 19 15 13 14 17 19 19 19 21 25 29 33 35 36 35 35 37 40 46 53 59 64 64 62 60 59 59 61 63 67 71 74 76 77 80 81 81 80 78 76 76 78 80
32 33 33 34 35 37 39 41 43 45 47 49 51 53 55 56 58 60 62 64 65 65 64 63 58 50 39 32 29 27 26 26 26 26 24 22 21 20 19 18 18 19 20 17 14 12 14 17 19 20 21 23 27 31 35 37 37 37 36 38 42 48 56 63 66 64 62 60 59 60 61 63 67 71 74 76 79 81 83 83 82 81 78 78 79
31 32 33 35 37 38 40 42 44 46 48 50 51 53 55 57 58 60 62 64 64 63 61 59 54 45 36 31 28 27 26 26 26 25 23 21 20 19 18 17 17 17 18 18 16 13 12 15 17 19 20 22 25 29 34 37 38 38 37 37 39 44 51 60 65 66 64 62 61 60 60 61 64 68 72 74 76 79 82 84 85 85 82 79 79
30 32 34 36 37 39 40 43 45 47 49 50 52 53 55 57 59 60 62 62 61 59 58 54 49 41 34 30 28 26 26 26 25 25 24 22 21 19 19 18 17 15 15 16 17 15 12 12 15 17 19 20 22 26 31 36 38 39 38 38 39 42 47 55 62 66 66 64 63 62 61 61 63 65 69 72 75 77 80 83 85 87 87 84 80
31 33 35 37 38 39 41 44 46 47 49 51 52 54 55 57 59 60 60 60 58 56 54 49 44 38 33 29 27 26 26 26 25 24 23 22 21 20 20 19 18 16 14 14 15 16 13 11 12 15 17 18 19 22 27 33 37 39 39 39 40 41 45 51 58 65 66 65 64 63 63 62 63 64 66 69 73 76 79 81 83 86 88 87 84
Wind_Direction
296 297 297 297 298 298 298 299 300 301 302 302 302 302 302 302 303 304 305 304 303 304 305 305 304 305 305 305 304 304 305 305 306 307 308 309 309 309 308 307 306 305 305 304 304 302 300 296 292 287 282 278 273 266 259 252 244 236 232 230 228 227 222 218 215 207 207 211 209 205 203 203 206 209 208 208 207 205 203 203 205 208 209 211 214
297 298 299 299 299 299 299 300 300 301 301 301 301 301 301 301 303 305 305 303 303 304 305 306 306 306 305 305 305 305 306 307 308 309 310 311 311 310 309 308 307 307 307 306 305 302 299 295 291 285 279 274 267 259 251 243 236 231 227 224 223 224 221 219 216 208 206 211 210 205 202 200 202 205 205 205 204 202 201 201 203 207 208 210 213
299 299 300 300 300 300 300 300 300 300 300 300 300 300 300 301 303 305 305 303 303 305 306 307 307 306 306 306 306 307 308 309 310 311 312 312 312 311 310 309 308 309 308 307 305 301 298 295 290 283 275 269 262 254 246 238 233 229 223 219 221 223 222 220 217 210 206 210 211 206 200 198 198 200 201 202 201 200 200 201 203 206 209 211 213
300 300 300 300 300 299 299 299 299 299 299 299 299 299 300 301 303 305 305 304 304 305 306 307 307 307 307 307 307 309 310 310 311 313 314 313 313 312 311 310 310 310 309 307 304 300 297 294 287 280 272 265 258 250 242 235 231 227 220 217 218 221 222 221 218 212 207 209 211 206 198 195 194 195 198 199 200 199 200 201 203 205 209 211 213
301 300 299 299 299 299 299 299 299 299 298 298 298 299 300 301 303 305 305 304 304 305 306 307 308 307 307 307 309 310 311 312 313 314 315 314 314 313 312 312 311 310 308 306 303 300 297 291 284 276 270 263 254 246 240 233 228 225 220 218 218 219 221 221 219 215 208 208 211 205 197 192 191 192 196 197 197 198 199 200 202 205 209 210 211
301 300 299 298 298 299 299 299 299 299 298 298 298 299 300 301 303 305 305 304 304 304 306 307 308 308 308 309 310 312 313 314 315 316 316 315 314 314 313 312 311 310 307 305 302 299 295 288 280 274 267 260 250 243 237 230 225 222 219 219 219 220 221 221 219 216 210 207 209 204 195 189 188 191 194 195 196 197 197 199 202 205 208 209 209
300 299 299 298 298 299 300 299 299 299 298 298 298 299 299 301 304 305 304 304 304 304 306 308 308 308 309 310 312 314 315 315 316 317 317 316 315 314 314 313 311 309 306 304 301 298 292 285 278 271 264 255 245 239 233 227 222 219 217 218 219 221 222 222 220 217 211 206 207 203 193 187 187 189 192 194 196 197 197 198 201 203 206 208 207
300 299 298 299 299 300 300 299 299 299 298 298 298 298 299 301 304 304 303 303 303 304 306 308 308 309 310 312 314 315 316 317 318 319 318 316 315 315 314 312 310 307 305 302 300 295 289 282 274 267 260 250 241 235 231 226 222 219 217 217 219 220 221 221 219 218 213 207 204 200 191 185 185 187 190 194 197 198 197 197 199 201 205 205 204
300 299 298 299 299 299 299 299 299 298 298 298 298 298 299 301 304 305 303 303 304 305 306 308 309 311 312 314 316 316 317 318 319 319 318 316 315 315 313 312 309 306 303 301 297 292 285 277 268 261 253 245 238 234 231 229 226 224 223 222 221 221 221 219 218 217 215 208 202 198 190 184 184 187 190 192 194 196 197 198 197 199 204 204 203
300 299 299 299 299 299 299 298 298 298 298 298 297 298 299 301 304 305 304 303 304 305 307 308 311 312 314 315 317 317 318 319 321 321 319 317 316 314 313 312 309 305 302 298 294 288 280 270 261 254 248 241 237 235 233 233 231 229 228 227 226 225 223 220 219 218 215 209 201 196 190 185 185 188 191 193 193 192 196 198 197 197 201 204 205
300 299 298 298 298 298 298 298 298 298 298 298 297 298 299 302 305 306 305 303 304 306 308 310 312 313 315 316 317 318 319 321 322 322 319 317 316 314 313 311 308 304 300 296 291 284 275 266 256 249 245 241 239 238 236 236 236 234 234 233 230 228 225 221 220 218 216 210 200 195 189 185 186 189 192 195 195 194 195 197 197 196 198 204 207
299 298 297 297 297 297 297 297 298 298 298 298 298 298 300 302 305 306 305 303 304 307 309 311 313 315 316 317 318 319 320 322 324 323 320 318 315 313 311 310 307 302 298 293 287 279 269 262 255 249 247 244 243 244 242 241 241 239 239 238 235 231 225 221 220 218 216 210 199 194 189 184 185 189 193 196 198 197 196 195 196 195 196 204 208
297 297 297 297 297 297 297 298 298 299 299 298 299 300 301 304 306 306 304 304 305 308 310 313 315 316 317 318 319 320 321 323 325 324 321 318 315 311 310 309 305 299 296 292 284 275 265 259 256 253 252 250 250 251 250 248 246 243 241 239 234 229 222 219 218 216 214 209 198 191 188 185 185 188 191 194 197 199 197 195 195 194 194 202 208
297 296 296 297 297 297 298 298 299 299 299 299 299 301 303 305 306 305 304 304 306 309 312 314 316 317 318 319 320 321 322 324 326 325 322 319 315 311 310 308 302 296 294 290 283 277 269 263 260 257 257 256 256 256 255 251 247 242 237 233 228 223 218 216 215 213 213 206 194 188 187 187 186 185 186 189 193 197 198 196 195 194 193 199 207
297 296 296 297 298 298 299 299 299 299 299 299 301 302 304 305 306 305 304 305 308 311 313 315 317 318 319 320 321 322 323 325 326 326 323 321 316 312 311 307 298 294 293 290 286 281 277 274 270 266 263 261 260 259 256 250 244 237 231 226 223 220 215 213 211 211 211 203 191 187 187 189 188 184 183 185 188 194 197 196 196 195 193 196 205
298 297 298 299 299 300 299 299 299 299 299 300 302 303 305 306 306 305 305 307 309 312 314 316 318 319 321 321 322 323 324 325 326 325 325 322 317 314 312 304 297 296 295 293 291 287 284 282 278 274 269 265 262 258 253 246 239 232 226 221 219 217 213 212 210 209 208 199 189 186 187 189 189 185 182 184 185 187 191 194 197 195 191 195 202
299 299 299 300 300 300 299 299 299 299 300 301 303 304 305 306 305 305 306 308 310 313 315 317 319 320 322 322 323 325 325 325 324 324 325 324 319 314 310 302 297 300 300 298 297 293 290 288 284 279 273 266 260 253 247 241 235 229 224 219 217 214 211 211 210 208 206 197 189 187 187 187 188 186 182 183 183 180 181 189 195 193 188 193 201
301 301 300 301 300 300 299 299 299 300 301 302 303 305 305 305 305 305 306 308 311 313 316 318 320 321 323 324 325 326 325 325 324 323 323 324 321 316 309 301 300 304 304 303 302 299 296 292 288 283 274 262 254 247 242 240 235 231 227 222 219 213 209 210 209 206 204 196 189 188 188 186 185 185 183 182 182 177 176 184 193 192 187 193 199
302 301 301 301 300 300 299 299 300 300 301 303 304 305 305 305 305 305 307 309 311 314 316 319 321 323 324 325 326 326 325 324 324 322 321 322 321 317 310 302 302 306 308 307 306 303 299 294 289 282 270 256 249 246 243 240 237 234 230 225 220 212 208 209 208 205 203 196 190 190 189 185 183 183 181 181 182 179 175 181 189 190 189 193 197
302 302 301 301 300 300 299 299 300 301 302 303 305 305 305 305 305 306 307 310 312 314 317 320 322 324 325 326 326 326 325 325 324 321 319 319 319 316 311 305 305 308 310 310 308 305 299 294 288 277 263 253 249 247 243 237 232 229 226 223 217 209 206 207 206 204 201 196 192 191 190 186 182 180 179 180 182 180 177 180 186 189 189 193 197
303 302 301 300 300 300 300 300 300 301 302 304 304 305 304 304 305 306 308 310 312 315 318 321 323 325 326 327 327 326 325 325 323 320 318 318 317 315 312 309 308 310 312 312 310 306 300 294 283 269 257 253 251 245 237 229 224 220 217 216 211 205 204 205 204 202 200 195 193 193 191 187 183 180 178 180 182 181 179 181 185 188 190 195 198
304 302 301 300 299 300 300 300 300 301 303 304 304 304 304 304 305 306 308 311 313 316 319 322 324 326 328 328 328 327 326 325 322 319 319 318 314 313 313 311 311 312 313 313 311 307 301 291 276 263 256 253 249 239 228 222 218 213 210 209 205 202 202 203 202 201 199 196 195 195 192 188 185 182 179 180 183 183 182 183 185 187 191 196 199
304 302 300 299 299 299 300 300 301 302 303 303 303 303 304 304 305 307 309 311 314 317 320 323 325 327 329 329 329 327 326 325 321 319 320 316 312 311 312 312 313 314 314 314 312 309 302 287 268 258 256 250 242 230 221 217 214 210 206 205 202 201 201 202 201 200 199 198 197 196 193 191 187 181 179 181 185 187 186 185 186 189 191 192 194
304 302 299 298 299 299 300 300 301 302 303 302 302 303 303 304 306 307 310 312 315 318 321 323 326 328 329 330 330 328 327 324 320 320 321 317 312 310 310 311 314 315 315 315 314 311 301 281 262 256 253 245 234 222 215 213 210 205 204 203 201 201 202 201 201 200 200 199 197 195 194 190 185 180 178 182 186 189 188 188 188 190 190 190 191
304 301 298 298 299 299 300 301 301 302 302 302 302 303 303 305 306 308 311 313 316 318 321 324 326 328 330 331 331 329 327 324 320 320 321 318 314 311 309 311 314 315 315 315 315 312 299 274 257 253 249 239 226 217 214 211 206 203 201 201 202 202 202 202 202 202 202 200 197 194 192 188 183 180 180 182 187 190 189 188 188 189 190 191 192
304 300 297 297 299 300 300 301 301 301 301 300 301 302 303 305 307 309 312 314 317 319 322 324 327 329 331 332 331 330 328 323 319 320 321 318 314 310 308 311 314 315 314 315 315 312 296 268 253 250 245 233 221 215 214 211 208 207 206 205 205 205 204 204 204 204 204 200 195 192 190 186 184 184 184 184 188 191 190 188 189 191 192 194 194
302 299 296 296 297 299 300 300 300 300 300 300 301 302 304 306 308 310 313 315 318 320 322 325 327 329 331 333 332 331 329 324 319 320 320 314 310 308 309 312 315 314 313 315 315 310 292 264 250 247 241 231 220 215 214 213 212 212 212 213 212 209 209 208 206 205 204 198 192 190 188 186 185 187 187 187 190 192 191 190 191 193 195 197 197
301 299 297 295 295 297 298 298 299 299 299 299 301 303 306 308 310 312 314 316 318 321 323 325 327 330 332 334 333 331 329 325 319 320 321 316 310 309 312 316 316 312 312 315 315 308 289 262 249 245 239 230 221 215 214 215 216 215 215 215 213 211 209 208 206 204 200 193 190 188 186 185 187 189 190 191 192 192 192 192 193 195 197 198 197
300 299 298 295 294 295 296 297 297 298 298 299 301 304 306 309 311 313 315 317 320 322 324 326 328 331 333 335 335 332 329 325 321 323 327 325 319 315 315 316 315 310 311 315 314 305 287 262 248 243 237 228 221 215 214 216 217 217 214 210 208 206 204 202 201 199 194 190 188 186 184 184 186 188 191 194 194 193 192 193 195 196 197 197 196
300 298 297 295 294 294 295 296 296 297 298 300 302 305 307 309 312 315 317 319 321 324 326 328 330 332 335 336 335 332 329 327 325 326 328 329 326 322 319 317 313 309 312 315 313 303 286 264 249 242 234 225 219 216 215 216 215 213 207 202 199 197 194 193 193 193 191 189 187 185 185 185 185 186 191 194 193 192 193 195 196 197 197 195 194
299 297 296 294 293 293 293 294 295 296 298 301 304 307 309 312 314 317 319 321 324 326 328 330 331 334 336 337 335 332 328 325 325 325 327 330 331 327 323 318 312 308 312 314 310 301 285 265 251 242 231 222 217 217 218 217 211 205 200 195 191 189 188 188 189 190 191 189 187 187 189 187 185 186 191 194 193 194 195 197 198 199 196 194 195
297 295 294 293 292 292 292 293 294 296 298 302 305 308 312 315 317 319 321 323 325 327 329 331 333 335 337 336 334 332 327 322 322 323 327 332 334 330 324 318 311 307 311 312 306 298 285 266 252 242 230 221 218 218 219 216 207 200 195 190 186 184 184 186 188 190 191 189 188 190 191 188 186 189 193 194 195 196 198 199 200 199 196 195 197
295 293 292 291 291 290 291 292 294 296 299 303 306 309 313 316 319 321 323 325 327 328 330 332 335 337 337 335 332 330 325 321 320 323 328 333 335 330 322 315 307 303 308 309 300 291 281 264 251 240 229 221 220 220 219 211 202 197 192 185 181 180 183 186 188 189 189 189 190 192 191 188 188 191 194 195 197 199 200 202 201 198 196 196 195
293 292 291 290 289 289 290 291 294 297 301 304 307 310 313 316 318 321 324 327 329 330 332 334 336 337 336 333 330 327 323 319 318 322 328 332 333 330 324 319 313 305 305 304 292 280 273 260 248 238 227 221 221 221 217 205 197 193 188 182 179 179 181 183 185 186 188 190 192 193 192 190 190 192 194 196 197 199 201 201 199 197 196 194 192
291 289 289 288 287 288 289 292 295 299 302 305 308 311 313 316 319 321 323 325 328 330 332 334 336 337 336 333 328 324 322 319 318 322 326 328 330 332 330 329 324 310 299 296 285 270 261 253 244 235 225 220 220 219 212 199 192 189 184 180 179 180 180 181 184 188 192 194 193 192 192 192 193 194 196 197 198 200 200 198 195 194 193 191 190
288 287 287 286 286 287 290 293 296 300 303 306 309 312 314 317 319 321 323 325 327 330 332 334 336 337 336 332 327 323 321 319 317 318 322 327 332 334 331 329 324 309 290 286 279 262 250 244 239 231 223 218 217 216 207 195 189 187 184 181 181 183 185 187 190 192 193 193 192 190 191 192 194 196 198 199 199 197 195 193 192 191 191 191 192
286 285 284 284 285 287 291 294 298 301 304 307 310 313 315 318 320 321 323 325 327 330 332 335 337 338 336 331 324 319 319 318 314 315 321 329 334 332 325 322 320 307 283 276 272 256 241 236 233 227 221 216 215 212 205 195 190 188 186 185 185 187 190 192 192 191 191 192 192 192 192 192 193 195 197 197 193 189 188 189 190 190 192 194 195
283 283 282 282 285 289 292 295 299 302 305 308 311 314 316 318 320 321 323 326 328 330 332 335 337 338 336 330 321 315 316 317 314 314 318 323 326 325 320 316 315 305 279 266 265 253 235 229 228 224 219 216 215 212 206 198 194 191 189 189 189 191 192 192 191 191 192 192 193 194 194 192 191 193 194 192 189 186 185 187 187 188 190 193 196
281 280 280 282 286 290 293 297 300 303 307 310 312 315 317 319 320 322 324 326 328 330 332 335 337 338 336 329 320 312 313 314 310 307 308 312 317 322 322 317 312 304 279 259 258 251 234 224 224 223 219 217 216 214 209 204 199 195 192 191 192 192 193 192 191 192 194 194 194 195 195 193 192 193 192 188 186 186 187 187 187 187 188 191 194
279 278 279 284 288 291 295 298 301 305 308 311 313 316 317 319 321 322 324 327 329 330 332 335 337 338 335 329 319 310 310 311 305 299 301 307 314 321 325 320 312 302 281 256 252 250 238 224 221 222 220 218 217 216 213 210 206 201 196 194 193 194 194 193 191 192 195 196 195 195 195 193 192 192 189 185 184 188 190 190 188 188 189 192 194
276 276 280 285 289 293 297 300 303 307 310 312 314 316 318 319 321 323 325 327 329 330 333 336 338 338 335 328 318 310 310 311 306 299 300 306 312 321 327 325 314 301 281 259 250 249 243 232 223 222 221 220 219 218 216 213 212 207 201 197 194 194 195 194 193 193 195 196 197 196 195 192 190 189 188 187 188 191 193 192 191 190 192 194 197
273 277 282 287 291 295 298 301 305 308 310 313 315 316 318 319 321 323 325 327 329 331 333 336 339 338 334 326 317 311 313 314 310 303 303 308 314 322 328 328 320 304 282 262 250 247 247 241 231 225 223 222 220 219 218 216 214 212 207 202 198 195 195 196 196 195 196 197 198 197 195 193 190 190 190 192 193 194 194 193 192 192 193 195 198
273 279 284 288 293 296 299 302 306 309 311 314 315 316 318 320 322 324 325 327 329 331 334 337 339 338 333 324 315 311 314 316 314 308 307 309 314 320 327 331 328 313 287 264 251 246 247 246 239 232 227 224 222 221 220 218 216 215 212 207 202 198 196 197 197 197 198 199 200 199 197 195 193 193 193 194 196 197 197 194 192 192 193 195 199
275 281 286 290 294 297 300 304 307 310 312 314 315 316 318 320 322 324 326 328 330 332 335 338 339 337 331 322 313 311 314 317 316 312 310 310 313 317 323 329 331 323 303 276 256 246 245 247 246 239 232 227 223 221 220 219 217 216 215 212 207 201 198 198 199 199 198 199 200 200 199 197 195 194 194 196 198 200 200 198 195 194 194 195 198
277 283 287 291 294 298 302 306 308 310 313 314 316 317 319 321 323 325 326 328 330 333 335 338 339 336 329 319 310 309 313 316 316 314 311 310 312 315 319 326 330 329 318 293 267 251 245 246 247 243 236 231 226 223 221 219 217 217 217 215 211 206 202 200 200 201 200 200 201 201 200 200 198 197 196 197 199 201 202 201 199 198 197 198 200
280 285 289 292 296 301 305 307 309 311 314 315 317 319 320 322 324 325 327 329 331 333 336 338 337 335 328 317 308 308 312 315 316 315 312 311 312 314 315 320 326 329 325 308 279 257 248 246 246 243 236 231 228 225 223 220 217 217 217 217 214 210 206 203 202 202 202 202 202 202 202 201 201 200 199 200 201 201 201 202 202 202 203 203 203
282 287 290 295 299 303 306 308 310 313 315 317 318 320 321 323 324 326 327 329 331 334 336 337 336 333 326 315 306 307 310 313 315 315 313 311 311 312 312 316 322 329 331 321 295 267 252 247 247 244 237 231 227 226 225 222 219 217 217 218 217 214 210 206 204 204 203 203 203 204 204 203 203 202 202 202 203 203 202 202 202 203 206 208 208
284 288 293 298 302 304 307 309 312 315 317 318 320 321 322 323 325 326 328 330 332 333 335 335 334 331 324 313 306 306 309 310 313 314 312 309 309 310 312 316 320 325 329 327 312 282 259 249 246 244 240 233 227 224 224 224 221 219 218 218 218 216 213 210 207 206 205 204 204 204 205 205 205 204 203 203 205 205 205 204 204 204 205 209 211
286 291 296 300 302 305 308 311 314 317 319 319 320 321 322 324 325 327 329 330 332 333 334 333 332 328 322 313 307 306 308 309 312 313 312 309 307 309 312 315 317 320 325 328 323 304 274 255 248 243 238 233 227 223 223 223 222 220 220 219 219 218 216 213 210 208 207 206 205 204 205 206 206 206 206 205 206 207 208 208 207 206 206 208 211
290 295 298 300 303 306 309 313 316 318 319 320 321 322 322 324 325 327 329 330 331 332 332 331 329 326 320 313 308 308 309 310 311 313 314 311 308 308 310 312 313 315 319 324 325 319 297 267 253 244 236 230 226 223 221 221 221 220 220 220 220 219 218 216 213 210 208 207 206 206 205 206 207 207 207 207 207 207 208 210 210 209 208 210 212
293 296 298 301 304 307 311 314 317 319 319 320 320 321 322 324 326 327 329 330 330 331 330 329 326 323 319 313 309 309 311 310 310 311 313 311 308 306 305 307 310 312 314 316 322 325 318 293 263 248 238 231 226 223 220 219 219 219 219 220 220 220 219 217 215 212 210 208 208 207 207 207 208 208 208 208 209 208 208 209 210 211 211 212 214
Height
5608 5605 5603 5600 5597 5594 5590 5586 5582 5577 5572 5567 5563 5557 5552 5547 5543 5538 5533 5527 5523 5519 5514 5509 5504 5499 5494 5488 5482 5476 5469 5462 5454 5447 5440 5432 5423 5413 5403 5393 5383 5375 5367 5359 5349 5339 5331 5326 5321 5316 5311 5310 5310 5311 5311 5313 5316 5320 5325 5331 5336 5342 5346 5349 5357 5365 5370 5373 5380 5388 5397 5410 5425 5442 5456 5468 5478 5489 5500 5510 5521 5531 5540 5548 5556
5600 5598 5595 5592 5589 5585 5581 5577 5572 5567 5562 5558 5553 5547 5542 5537 5533 5528 5523 5518 5513 5508 5504 5499 5494 5489 5483 5477 5471 5465 5458 5450 5442 5435 5428 5419 5410 5399 5388 5377 5368 5359 5351 5342 5333 5323 5315 5310 5307 5303 5300 5298 5299 5300 5301 5303 5307 5312 5318 5323 5330 5336 5340 5344 5351 5359 5364 5367 5373 5381 5389 5402 5419 5434 5447 5459 5470 5481 5491 5500 5511 5522 5532 5541 5548
5593 5589 5587 5583 5580 5576 5572 5567 5563 5558 5553 5548 5543 5537 5532 5528 5523 5518 5513 5508 5503 5498 5493 5488 5483 5478 5473 5466 5460 5454 5446 5439 5431 5423 5415 5405 5396 5386 5374 5362 5352 5343 5335 5327 5318 5310 5304 5300 5296 5293 5290 5289 5289 5291 5292 5295 5299 5304 5310 5316 5323 5329 5334 5338 5345 5352 5359 5362 5366 5374 5383 5396 5412 5426 5438 5452 5463 5473 5483 5491 5502 5513 5524 5533 5541
5585 5581 5578 5574 5571 5566 5562 5558 5553 5548 5543 5538 5533 5527 5522 5518 5513 5508 5503 5498 5493 5488 5482 5478 5473 5467 5462 5456 5449 5442 5434 5427 5419 5411 5401 5391 5381 5371 5360 5348 5337 5328 5320 5313 5307 5300 5295 5291 5288 5284 5282 5281 5282 5283 5284 5288 5292 5297 5303 5310 5316 5322 5327 5332 5338 5345 5352 5356 5360 5368 5378 5391 5405 5419 5432 5445 5456 5466 5476 5485 5495 5506 5515 5525 5534
5576 5573 5569 5565 5561 5557 5553 5549 5544 5539 5534 5528 5523 5518 5513 5508 5503 5498 5493 5488 5483 5478 5473 5468 5462 5457 5451 5445 5439 5432 5423 5414 5406 5398 5388 5376 5365 5355 5345 5334 5324 5315 5307 5302 5297 5291 5287 5283 5280 5276 5275 5274 5275 5276 5278 5281 5285 5291 5298 5304 5310 5316 5320 5325 5331 5338 5345 5351 5355 5362 5373 5386 5400 5413 5426 5438 5449 5460 5470 5479 5490 5500 5508 5518 5528
5568 5564 5560 5556 5552 5548 5543 5539 5534 5529 5524 5519 5513 5508 5503 5499 5493 5488 5483 5478 5473 5468 5463 5458 5452 5447 5440 5434 5427 5420 5411 5402 5393 5385 5374 5362 5352 5341 5331 5321 5312 5304 5298 5292 5288 5283 5279 5275 5272 5270 5269 5268 5269 5271 5273 5276 5280 5286 5292 5298 5305 5310 5314 5319 5325 5331 5338 5345 5350 5358 5369 5382 5395 5407 5419 5430 5442 5453 5463 5473 5484 5493 5500 5509 5519
5560 5556 5552 5547 5543 5538 5534 5529 5524 5519 5514 5509 5504 5499 5494 5489 5484 5478 5473 5468 5463 5458 5453 5448 5442 5436 5430 5423 5416 5408 5399 5390 5381 5372 5360 5349 5338 5328 5318 5309 5301 5294 5288 5284 5279 5275 5271 5268 5265 5264 5263 5263 5264 5266 5268 5272 5276 5281 5287 5292 5298 5303 5308 5313 5319 5324 5331 5339 5345 5353 5364 5376 5389 5402 5413 5424 5434 5444 5455 5466 5476 5484 5492 5501 5511
5551 5547 5543 5538 5534 5529 5524 5519 5515 5510 5505 5499 5494 5489 5484 5479 5474 5469 5463 5458 5453 5447 5443 5438 5432 5426 5419 5412 5405 5397 5388 5379 5370 5359 5348 5336 5325 5315 5306 5298 5291 5285 5280 5275 5271 5267 5264 5261 5260 5259 5259 5259 5260 5262 5265 5268 5272 5277 5282 5286 5291 5296 5301 5307 5312 5318 5325 5331 5338 5348 5358 5369 5382 5394 5406 5417 5427 5437 5448 5458 5467 5476 5485 5494 5504
5542 5538 5534 5529 5525 5520 5515 5510 5505 5500 5495 5490 5484 5480 5475 5470 5464 5459 5453 5448 5443 5437 5432 5427 5421 5416 5409 5401 5394 5386 5377 5368 5359 5348 5336 5324 5314 5305 5295 5288 5283 5277 5272 5267 5263 5259 5257 5256 5255 5254 5255 5256 5257 5259 5262 5264 5268 5273 5277 5281 5286 5291 5295 5301 5306 5311 5317 5324 5332 5342 5352 5362 5373 5385 5397 5410 5421 5432 5441 5450 5458 5469 5480 5489 5496
5533 5529 5525 5520 5516 5511 5506 5501 5496 5491 5486 5480 5475 5470 5465 5460 5455 5449 5444 5438 5432 5427 5422 5416 5410 5405 5398 5391 5384 5376 5367 5358 5350 5338 5324 5311 5302 5293 5285 5279 5275 5269 5264 5260 5256 5253 5251 5250 5250 5250 5251 5252 5254 5256 5258 5261 5264 5269 5272 5276 5280 5285 5290 5295 5300 5305 5311 5318 5326 5335 5345 5356 5366 5378 5391 5403 5414 5422 5431 5439 5450 5462 5473 5482 5488
5523 5520 5516 5511 5507 5502 5497 5492 5487 5482 5477 5471 5466 5461 5456 5451 5446 5440 5434 5428 5423 5417 5411 5406 5400 5394 5388 5382 5374 5366 5357 5349 5340 5328 5314 5300 5290 5282 5276 5271 5267 5261 5256 5253 5250 5248 5246 5246 5246 5246 5247 5248 5249 5251 5254 5256 5259 5263 5266 5269 5273 5278 5283 5289 5294 5299 5305 5312 5321 5330 5340 5351 5362 5373 5386 5396 5404 5412 5421 5432 5443 5453 5463 5472 5479
5514 5510 5506 5502 5497 5493 5487 5483 5478 5472 5467 5462 5457 5452 5447 5442 5436 5430 5424 5419 5413 5407 5401 5396 5390 5384 5378 5371 5364 5355 5347 5340 5331 5319 5306 5293 5281 5273 5268 5264 5260 5255 5250 5247 5245 5244 5242 5241 5241 5242 5242 5243 5244 5246 5248 5249 5251 5255 5258 5261 5265 5269 5275 5282 5287 5293 5299 5306 5315 5325 5336 5347 5357 5369 5381 5389 5397 5406 5415 5425 5434 5444 5454 5465 5473
5505 5501 5497 5492 5488 5483 5478 5474 5469 5463 5458 5453 5448 5443 5438 5433 5427 5421 5416 5410 5404 5398 5392 5386 5381 5374 5368 5361 5353 5344 5336 5330 5322 5310 5297 5285 5274 5266 5262 5258 5253 5249 5245 5243 5241 5239 5238 5236 5236 5237 5237 5237 5238 5238 5240 5241 5242 5245 5248 5251 5255 5259 5266 5273 5279 5285 5291 5298 5307 5320 5333 5342 5352 5365 5375 5382 5390 5399 5407 5416 5427 5437 5447 5458 5468
5495 5492 5488 5483 5479 5474 5469 5465 5460 5455 5450 5444 5439 5435 5430 5424 5419 5413 5407 5401 5395 5390 5384 5378 5372 5365 5358 5350 5342 5333 5324 5317 5311 5301 5288 5276 5266 5260 5256 5251 5247 5243 5240 5238 5236 5234 5233 5231 5231 5231 5230 5229 5229 5229 5230 5231 5232 5234 5237 5241 5246 5251 5257 5264 5270 5277 5284 5291 5302 5316 5328 5337 5348 5358 5366 5373 5382 5390 5399 5409 5420 5430 5442 5455 5466
5486 5482 5478 5474 5470 5465 5461 5456 5451 5446 5441 5436 5431 5426 5421 5416 5411 5405 5399 5393 5387 5382 5376 5370 5364 5356 5348 5340 5331 5322 5311 5304 5298 5290 5278 5268 5259 5253 5249 5245 5242 5239 5236 5233 5231 5229 5227 5225 5224 5223 5221 5220 5219 5218 5219 5220 5221 5223 5228 5233 5238 5243 5249 5256 5262 5270 5278 5287 5299 5312 5322 5331 5341 5349 5356 5365 5374 5382 5392 5403 5413 5426 5439 5452 5460
5477 5473 5469 5465 5461 5456 5452 5447 5443 5438 5433 5428 5423 5418 5413 5408 5402 5397 5391 5385 5379 5374 5369 5362 5356 5349 5340 5331 5322 5313 5301 5291 5285 5278 5269 5260 5253 5247 5243 5240 5236 5233 5230 5227 5224 5222 5219 5217 5215 5213 5211 5210 5208 5207 5207 5208 5210 5215 5220 5225 5231 5237 5243 5250 5257 5264 5273 5283 5294 5305 5314 5324 5333 5340 5348 5358 5366 5374 5383 5395 5408 5420 5432 5442 5449
5467 5463 5460 5456 5451 5447 5443 5439 5434 5429 5424 5419 5415 5410 5405 5399 5394 5389 5384 5378 5372 5367 5362 5355 5348 5340 5332 5322 5313 5304 5294 5283 5274 5266 5259 5252 5247 5241 5237 5234 5231 5228 5225 5221 5217 5214 5210 5206 5203 5202 5200 5198 5197 5196 5197 5199 5203 5208 5213 5218 5224 5231 5238 5246 5253 5261 5270 5280 5289 5297 5306 5315 5324 5333 5342 5351 5359 5364 5371 5385 5400 5410 5419 5430 5441
5458 5454 5450 5447 5442 5438 5434 5430 5425 5420 5415 5411 5406 5401 5396 5391 5386 5381 5376 5371 5366 5361 5356 5349 5341 5332 5323 5313 5303 5294 5285 5276 5266 5256 5249 5244 5240 5235 5231 5229 5226 5223 5219 5215 5210 5206 5201 5197 5193 5191 5190 5189 5188 5188 5190 5192 5196 5201 5205 5211 5217 5225 5233 5240 5246 5255 5264 5272 5280 5288 5298 5308 5318 5327 5335 5343 5350 5353 5360 5376 5392 5400 5407 5421 5435
5449 5445 5441 5438 5434 5430 5425 5421 5416 5411 5405 5402 5398 5394 5389 5383 5378 5374 5369 5364 5359 5354 5349 5343 5335 5326 5316 5305 5295 5285 5277 5269 5259 5249 5242 5237 5233 5229 5226 5223 5220 5217 5213 5209 5204 5199 5194 5188 5185 5183 5183 5182 5181 5182 5183 5185 5189 5192 5196 5201 5207 5217 5226 5232 5237 5246 5255 5264 5272 5281 5291 5302 5312 5320 5328 5335 5341 5347 5355 5369 5384 5392 5400 5414 5429
5440 5436 5433 5429 5425 5421 5417 5412 5408 5403 5397 5394 5390 5386 5381 5376 5371 5366 5361 5357 5352 5347 5342 5336 5329 5320 5310 5299 5288 5277 5268 5260 5251 5243 5236 5231 5226 5223 5220 5217 5214 5211 5207 5203 5198 5193 5187 5182 5179 5177 5177 5177 5176 5177 5177 5179 5182 5185 5188 5192 5199 5210 5217 5222 5229 5238 5247 5257 5266 5274 5285 5296 5305 5313 5321 5328 5336 5345 5353 5363 5376 5388 5398 5409 5423
5431 5427 5424 5421 5417 5413 5409 5403 5399 5395 5390 5386 5382 5377 5374 5369 5364 5360 5355 5350 5345 5340 5335 5329 5322 5314 5304 5293 5282 5271 5260 5252 5244 5237 5231 5226 5221 5217 5214 5211 5207 5205 5201 5197 5192 5187 5181 5176 5174 5173 5173 5173 5173 5172 5174 5175 5178 5181 5184 5189 5195 5202 5208 5215 5223 5232 5240 5250 5259 5268 5278 5289 5299 5307 5315 5324 5334 5344 5352 5360 5372 5386 5395 5404 5418
5422 5419 5415 5412 5408 5405 5400 5396 5391 5387 5383 5379 5374 5370 5366 5361 5357 5353 5348 5343 5338 5332 5328 5322 5316 5308 5298 5287 5276 5265 5254 5245 5238 5232 5227 5221 5215 5211 5209 5205 5201 5198 5195 5191 5186 5181 5175 5171 5170 5169 5169 5170 5170 5170 5172 5174 5176 5180 5184 5188 5193 5198 5204 5211 5219 5226 5235 5245 5253 5262 5273 5284 5294 5303 5312 5323 5333 5342 5351 5360 5371 5384 5394 5403 5416
5414 5410 5406 5403 5400 5396 5392 5388 5383 5379 5376 5372 5367 5363 5358 5354 5350 5345 5341 5336 5331 5326 5321 5315 5309 5302 5293 5282 5270 5259 5249 5240 5233 5227 5222 5217 5211 5206 5203 5200 5195 5192 5189 5185 5181 5175 5170 5167 5166 5166 5166 5167 5167 5168 5171 5174 5177 5181 5184 5188 5192 5197 5202 5208 5215 5223 5232 5241 5248 5258 5268 5280 5292 5302 5311 5323 5334 5342 5351 5361 5371 5382 5393 5403 5416
5405 5402 5398 5394 5391 5388 5384 5380 5376 5372 5368 5364 5360 5356 5351 5347 5342 5338 5333 5329 5324 5319 5314 5309 5303 5296 5288 5279 5267 5255 5245 5237 5230 5224 5218 5213 5207 5202 5198 5195 5191 5187 5183 5180 5176 5171 5166 5163 5163 5163 5164 5165 5166 5167 5170 5174 5177 5181 5185 5189 5193 5197 5202 5209 5217 5224 5231 5238 5246 5255 5266 5279 5291 5303 5313 5324 5333 5342 5352 5362 5371 5382 5394 5405 5415
5397 5393 5389 5386 5383 5379 5376 5372 5368 5364 5361 5357 5352 5348 5344 5340 5335 5330 5326 5321 5317 5312 5307 5302 5296 5290 5282 5274 5263 5252 5242 5234 5228 5223 5216 5209 5204 5198 5194 5190 5187 5183 5179 5175 5171 5166 5162 5160 5161 5161 5162 5163 5165 5167 5170 5173 5177 5180 5184 5188 5193 5198 5204 5211 5218 5224 5230 5238 5247 5257 5267 5280 5292 5303 5312 5320 5328 5337 5347 5358 5368 5378 5389 5400 5408
5389 5385 5381 5377 5374 5371 5368 5365 5361 5357 5353 5349 5345 5342 5337 5333 5329 5324 5320 5315 5310 5305 5300 5294 5289 5283 5276 5267 5257 5247 5238 5230 5225 5220 5214 5207 5201 5195 5190 5186 5182 5179 5175 5171 5167 5162 5159 5158 5159 5159 5160 5162 5164 5167 5169 5172 5176 5181 5184 5188 5193 5198 5204 5210 5217 5224 5232 5240 5249 5258 5268 5279 5290 5298 5305 5312 5321 5332 5341 5351 5360 5370 5379 5388 5397
5381 5377 5373 5370 5366 5362 5360 5356 5353 5350 5346 5342 5338 5334 5330 5326 5322 5317 5313 5308 5303 5298 5292 5287 5282 5276 5270 5262 5251 5241 5233 5225 5220 5216 5210 5204 5198 5193 5188 5183 5179 5175 5171 5168 5164 5159 5157 5156 5157 5158 5159 5161 5163 5166 5168 5171 5175 5179 5184 5187 5191 5196 5202 5207 5214 5221 5229 5238 5247 5256 5266 5275 5283 5291 5299 5308 5319 5329 5337 5346 5355 5365 5375 5384 5393
5373 5370 5366 5362 5358 5355 5351 5348 5345 5342 5339 5336 5332 5327 5322 5318 5314 5310 5306 5301 5297 5291 5285 5279 5274 5268 5263 5256 5246 5236 5228 5221 5215 5210 5204 5198 5192 5188 5184 5180 5176 5172 5169 5165 5161 5157 5155 5155 5156 5157 5158 5160 5162 5165 5167 5170 5173 5177 5180 5184 5188 5192 5197 5202 5209 5216 5224 5233 5243 5253 5261 5271 5280 5289 5299 5308 5317 5327 5335 5344 5353 5363 5373 5381 5388
5365 5362 5358 5355 5351 5347 5344 5340 5337 5334 5331 5329 5326 5322 5317 5312 5307 5302 5298 5294 5289 5283 5277 5271 5265 5260 5254 5247 5238 5229 5222 5216 5210 5204 5198 5193 5187 5183 5179 5176 5173 5170 5166 5163 5159 5156 5154 5154 5155 5155 5156 5158 5161 5164 5166 5169 5172 5175 5177 5180 5184 5188 5193 5199 5206 5214 5222 5231 5241 5251 5260 5270 5280 5289 5298 5307 5316 5325 5334 5342 5350 5359 5368 5376 5384
5357 5353 5350 5347 5343 5340 5337 5333 5330 5327 5324 5321 5319 5316 5312 5307 5301 5296 5291 5286 5281 5275 5269 5262 5257 5251 5246 5239 5230 5220 5213 5209 5205 5200 5195 5190 5185 5180 5176 5173 5170 5167 5164 5161 5158 5155 5154 5153 5154 5154 5155 5157 5160 5163 5165 5167 5170 5172 5175 5178 5182 5186 5191 5197 5205 5213 5220 5230 5240 5251 5260 5269 5278 5287 5296 5305 5315 5323 5331 5339 5347 5354 5362 5371 5380
5348 5344 5342 5339 5336 5333 5330 5327 5324 5322 5318 5315 5312 5308 5303 5299 5294 5290 5285 5279 5273 5267 5260 5254 5248 5242 5237 5231 5224 5216 5209 5204 5201 5198 5193 5188 5182 5178 5174 5171 5168 5165 5163 5160 5157 5154 5153 5153 5153 5153 5154 5156 5160 5162 5164 5166 5168 5170 5174 5178 5182 5187 5191 5198 5205 5212 5220 5230 5241 5250 5259 5267 5276 5286 5295 5304 5313 5321 5328 5335 5342 5350 5359 5368 5376
5339 5336 5333 5331 5328 5326 5323 5321 5319 5316 5313 5310 5307 5302 5297 5292 5286 5282 5277 5273 5268 5262 5255 5248 5241 5234 5229 5223 5218 5212 5206 5202 5198 5195 5190 5185 5179 5175 5172 5169 5166 5163 5161 5158 5156 5154 5153 5152 5152 5153 5154 5156 5159 5161 5163 5166 5168 5170 5174 5179 5184 5189 5193 5198 5205 5212 5221 5231 5241 5250 5258 5266 5275 5285 5294 5302 5311 5318 5325 5331 5338 5347 5356 5364 5372
5331 5328 5325 5323 5321 5319 5316 5315 5313 5310 5308 5305 5301 5298 5293 5288 5282 5276 5270 5265 5260 5255 5250 5243 5235 5228 5221 5216 5211 5207 5202 5198 5195 5191 5187 5182 5177 5173 5169 5166 5164 5162 5160 5158 5155 5153 5152 5152 5152 5152 5154 5156 5158 5160 5163 5165 5167 5171 5175 5179 5184 5191 5196 5201 5206 5213 5222 5232 5241 5248 5256 5265 5274 5283 5292 5299 5307 5314 5321 5329 5337 5345 5352 5359 5365
5323 5320 5318 5316 5314 5312 5310 5309 5307 5304 5302 5300 5296 5293 5289 5284 5280 5274 5268 5261 5255 5248 5242 5237 5230 5224 5217 5210 5206 5203 5198 5194 5191 5188 5184 5180 5176 5172 5167 5164 5162 5161 5159 5157 5155 5153 5152 5152 5151 5152 5153 5155 5157 5160 5162 5164 5167 5171 5175 5179 5185 5190 5196 5203 5210 5217 5225 5233 5240 5247 5255 5263 5272 5280 5288 5296 5304 5311 5318 5327 5335 5341 5347 5353 5360
5315 5313 5310 5309 5307 5306 5305 5303 5301 5299 5297 5294 5291 5287 5283 5279 5275 5270 5265 5260 5255 5248 5241 5234 5228 5222 5215 5208 5202 5199 5195 5191 5187 5184 5181 5178 5174 5170 5166 5163 5161 5159 5157 5156 5154 5153 5152 5151 5151 5152 5153 5154 5156 5158 5161 5164 5167 5170 5175 5180 5186 5192 5198 5205 5212 5220 5227 5234 5240 5247 5254 5262 5270 5278 5285 5293 5300 5307 5314 5323 5330 5337 5343 5350 5357
5308 5306 5304 5302 5301 5300 5299 5298 5296 5294 5291 5288 5285 5281 5277 5273 5269 5265 5260 5255 5250 5245 5240 5233 5225 5218 5211 5204 5198 5194 5191 5187 5184 5182 5179 5175 5170 5166 5163 5161 5160 5158 5156 5155 5154 5152 5151 5151 5151 5152 5153 5154 5155 5157 5160 5163 5166 5170 5175 5181 5187 5194 5201 5208 5214 5220 5226 5232 5239 5245 5252 5260 5268 5275 5282 5289 5297 5304 5312 5320 5327 5333 5340 5347 5354
5301 5299 5298 5296 5295 5294 5293 5292 5290 5288 5285 5283 5280 5276 5272 5268 5263 5259 5254 5249 5244 5239 5235 5230 5224 5216 5209 5202 5196 5192 5189 5185 5181 5178 5175 5171 5167 5163 5161 5159 5158 5156 5155 5154 5153 5152 5151 5151 5151 5152 5153 5153 5155 5157 5159 5162 5166 5171 5176 5182 5188 5195 5201 5207 5213 5219 5224 5230 5237 5244 5250 5258 5265 5273 5280 5286 5293 5300 5308 5316 5323 5329 5336 5344 5351
5294 5293 5292 5290 5290 5289 5288 5286 5285 5282 5280 5277 5274 5270 5266 5262 5258 5253 5248 5243 5239 5234 5229 5225 5220 5214 5208 5201 5195 5191 5187 5183 5179 5176 5174 5171 5168 5165 5161 5158 5156 5154 5153 5152 5151 5151 5151 5150 5151 5152 5153 5154 5155 5157 5159 5162 5166 5171 5176 5182 5188 5194 5200 5205 5211 5217 5223 5228 5235 5241 5248 5255 5262 5270 5277 5284 5291 5297 5304 5311 5318 5324 5331 5338 5345
5288 5287 5286 5285 5285 5284 5283 5281 5279 5277 5275 5272 5268 5264 5260 5256 5252 5247 5242 5238 5233 5229 5224 5220 5214 5209 5204 5198 5193 5189 5185 5182 5179 5176 5174 5171 5169 5165 5161 5157 5154 5152 5151 5150 5150 5150 5150 5150 5151 5152 5153 5154 5156 5158 5160 5163 5166 5171 5176 5181 5187 5193 5198 5203 5209 5216 5221 5227 5233 5239 5246 5252 5259 5266 5273 5280 5288 5295 5301 5307 5313 5319 5326 5333 5341
5283 5282 5281 5280 5280 5278 5277 5276 5274 5271 5269 5266 5262 5259 5255 5251 5246 5242 5237 5232 5228 5223 5219 5214 5209 5204 5198 5193 5189 5186 5182 5179 5176 5174 5172 5169 5166 5163 5160 5156 5153 5150 5149 5149 5149 5149 5149 5150 5150 5151 5153 5154 5156 5158 5161 5164 5167 5170 5175 5180 5185 5191 5196 5202 5207 5214 5219 5225 5231 5237 5243 5249 5256 5263 5270 5277 5284 5291 5297 5303 5310 5316 5323 5331 5340
5277 5276 5275 5275 5274 5273 5272 5270 5268 5266 5263 5259 5256 5253 5249 5245 5241 5237 5232 5228 5223 5218 5214 5209 5204 5199 5193 5188 5184 5181 5178 5175 5172 5170 5168 5166 5163 5160 5157 5154 5151 5149 5148 5147 5147 5147 5148 5149 5150 5151 5152 5154 5155 5157 5160 5163 5166 5169 5173 5178 5183 5188 5194 5199 5205 5211 5217 5223 5228 5234 5240 5246 5253 5260 5267 5274 5281 5287 5293 5300 5306 5313 5320 5329 5337
5271 5271 5270 5270 5268 5267 5266 5264 5262 5260 5257 5253 5251 5247 5244 5240 5236 5232 5227 5223 5218 5213 5208 5203 5198 5193 5188 5183 5180 5177 5174 5171 5169 5166 5165 5163 5160 5157 5155 5152 5149 5148 5146 5145 5145 5145 5146 5147 5148 5149 5151 5152 5154 5155 5158 5161 5164 5168 5172 5176 5181 5186 5191 5196 5202 5208 5213 5219 5225 5231 5237 5243 5250 5257 5264 5271 5277 5283 5289 5295 5302 5308 5315 5323 5331
5266 5266 5265 5264 5263 5262 5260 5258 5256 5254 5251 5248 5245 5242 5238 5235 5231 5226 5223 5218 5213 5209 5204 5199 5193 5188 5183 5179 5176 5174 5171 5168 5165 5163 5161 5160 5157 5155 5152 5150 5147 5146 5144 5143 5143 5143 5144 5145 5146 5147 5148 5150 5152 5154 5156 5159 5162 5166 5169 5174 5179 5183 5188 5193 5199 5204 5210 5215 5221 5227 5234 5240 5247 5254 5261 5266 5272 5279 5285 5291 5297 5303 5309 5316 5324
5260 5260 5259 5259 5258 5256 5255 5253 5251 5248 5245 5243 5240 5236 5233 5229 5225 5221 5218 5213 5209 5205 5200 5194 5190 5184 5179 5175 5173 5171 5168 5165 5163 5160 5159 5157 5155 5153 5151 5148 5146 5144 5142 5141 5141 5141 5141 5142 5143 5144 5146 5148 5150 5152 5155 5157 5160 5163 5167 5171 5176 5180 5185 5190 5196 5201 5206 5212 5217 5224 5230 5236 5243 5250 5256 5262 5268 5275 5281 5287 5293 5299 5304 5310 5317
5255 5255 5254 5253 5252 5251 5249 5247 5245 5242 5240 5237 5234 5231 5227 5224 5220 5216 5212 5208 5204 5200 5195 5190 5186 5181 5176 5173 5170 5168 5166 5163 5160 5158 5156 5154 5153 5151 5149 5147 5145 5143 5141 5140 5139 5139 5139 5140 5141 5142 5143 5145 5148 5150 5153 5155 5158 5161 5164 5168 5172 5177 5182 5187 5193 5198 5204 5209 5214 5220 5226 5233 5239 5245 5252 5259 5265 5271 5278 5284 5290 5295 5300 5305 5311
5250 5249 5249 5248 5247 5245 5243 5241 5239 5237 5235 5232 5228 5225 5221 5218 5214 5211 5207 5203 5199 5195 5190 5186 5181 5177 5173 5170 5167 5165 5163 5160 5158 5156 5154 5152 5150 5149 5147 5146 5144 5142 5140 5138 5137 5137 5137 5138 5138 5140 5141 5142 5145 5147 5150 5153 5155 5158 5161 5165 5169 5173 5178 5184 5189 5195 5201 5206 5211 5216 5222 5229 5235 5241 5248 5254 5261 5267 5273 5280 5286 5291 5297 5302 5308
5245 5244 5243 5242 5241 5239 5237 5235 5234 5231 5229 5226 5223 5219 5216 5212 5209 5206 5202 5198 5194 5190 5185 5181 5177 5173 5170 5167 5164 5162 5160 5158 5155 5153 5151 5150 5148 5147 5145 5144 5142 5140 5138 5137 5135 5135 5135 5135 5136 5137 5138 5139 5142 5144 5146 5150 5153 5155 5159 5162 5166 5170 5175 5180 5185 5191 5197 5202 5207 5213 5218 5224 5230 5236 5242 5249 5255 5262 5268 5274 5280 5286 5292 5297 5303
5239 5239 5238 5236 5235 5233 5231 5230 5228 5226 5223 5220 5217 5214 5210 5207 5204 5201 5197 5193 5189 5185 5181 5177 5173 5170 5167 5164 5161 5160 5158 5155 5153 5151 5149 5148 5147 5145 5143 5142 5141 5139 5137 5136 5134 5133 5133 5133 5134 5134 5135 5136 5138 5141 5143 5147 5150 5153 5156 5159 5163 5167 5171 5176 5182 5188 5193 5198 5203 5208 5214 5219 5225 5231 5237 5243 5249 5255 5262 5268 5273 5280 5286 5291 5297
5234 5233 5232 5231 5229 5228 5226 5224 5222 5219 5217 5214 5211 5208 5205 5202 5199 5195 5192 5188 5184 5180 5176 5172 5169 5167 5164 5161 5159 5157 5155 5153 5151 5149 5147 5146 5144 5143 5141 5140 5139 5138 5136 5135 5133 5132 5131 5131 5131 5132 5132 5134 5135 5137 5140 5143 5147 5150 5153 5157 5160 5163 5168 5172 5178 5183 5188 5193 5198 5204 5209 5214 5220 5225 5231 5237 5243 5249 5255 5261 5267 5274 5279 5285 5291
5228 5227 5226 5225 5224 5222 5221 5219 5216 5213 5211 5208 5205 5203 5200 5196 5193 5190 5186 5183 5179 5175 5172 5168 5166 5163 5160 5158 5156 5154 5152 5150 5148 5147 5145 5143 5142 5141 5140 5139 5137 5136 5135 5134 5132 5131 5130 5129 5129 5130 5130 5131 5133 5134 5137 5139 5143 5146 5150 5153 5156 5160 5164 5168 5173 5178 5183 5189 5194 5198 5204 5209 5214 5219 5225 5232 5237 5243 5248 5254 5260 5267 5272 5278 5284
5223 5222 5221 5220 5219 5217 5215 5213 5210 5207 5205 5202 5200 5197 5194 5191 5188 5185 5181 5178 5174 5171 5168 5165 5162 5160 5157 5155 5153 5151 5150 5148 5146 5145 5143 5141 5140 5139 5138 5137 5135 5134 5133 5132 5131 5130 5129 5128 5128 5128 5128 5129 5130 5131 5133 5136 5139 5142 5146 5149 5152 5155 5159 5163 5168 5173 5178 5184 5189 5194 5198 5204 5209 5214 5220 5225 5231 5236 5242 5247 5253 5259 5265 5271 5278